TimeCST,TemperatureF,Dew PointF,Humidity,Sea Level PressureIn,VisibilityMPH,Wind Direction,Wind SpeedMPH,Gust SpeedMPH,PrecipitationIn,Events,Conditions,WindDirDegrees,DateUTC
12:16 AM,55.4,48.2,77,29.83,5.0,ENE,5.8,-,N/A,,Overcast,70,2012-12-09 06:16:00
12:35 AM,55.4,48.2,77,29.82,5.0,ENE,6.9,-,N/A,,Overcast,70,2012-12-09 06:35:00
12:55 AM,55.4,48.2,77,29.81,4.0,ESE,6.9,-,N/A,,Overcast,110,2012-12-09 06:55:00
1:15 AM,55.4,48.2,77,29.80,3.0,ESE,5.8,-,N/A,,Overcast,110,2012-12-09 07:15:00
1:35 AM,55.4,48.2,77,29.80,3.0,ESE,4.6,-,N/A,,Overcast,120,2012-12-09 07:35:00
2:15 AM,55.4,48.2,77,29.80,3.0,ENE,4.6,-,N/A,,Overcast,60,2012-12-09 08:15:00
3:15 AM,55.4,48.2,77,29.80,4.0,ENE,4.6,-,N/A,,Overcast,60,2012-12-09 09:15:00
3:35 AM,55.4,48.2,77,29.80,4.0,East,3.5,-,N/A,,Overcast,90,2012-12-09 09:35:00
3:55 AM,55.4,48.2,77,29.79,3.0,East,6.9,-,N/A,,Overcast,100,2012-12-09 09:55:00
4:15 AM,53.6,48.2,82,29.79,3.0,ENE,3.5,-,N/A,,Overcast,70,2012-12-09 10:15:00
4:35 AM,53.6,48.2,82,29.79,2.0,NE,4.6,-,N/A,,Overcast,40,2012-12-09 10:35:00
4:55 AM,53.6,48.2,82,29.79,2.0,Calm,Calm,-,N/A,,Overcast,0,2012-12-09 10:55:00
5:35 AM,53.6,48.2,82,29.78,0.5,East,3.5,-,N/A,,Overcast,80,2012-12-09 11:35:00
5:56 AM,53.6,48.2,82,29.79,0.5,North,4.6,-,N/A,,Overcast,350,2012-12-09 11:56:00
6:15 AM,53.6,48.2,82,29.78,0.5,ENE,3.5,-,N/A,,Overcast,70,2012-12-09 12:15:00
6:35 AM,53.6,48.2,82,29.78,0.5,ESE,6.9,-,N/A,,Overcast,110,2012-12-09 12:35:00
6:55 AM,53.6,48.2,82,29.78,0.5,Calm,Calm,-,N/A,,Overcast,0,2012-12-09 12:55:00
7:15 AM,53.6,48.2,82,29.78,0.5,ESE,3.5,-,N/A,,Overcast,120,2012-12-09 13:15:00
7:36 AM,53.6,48.2,82,29.77,0.2,East,3.5,-,N/A,,Overcast,90,2012-12-09 13:36:00
7:55 AM,53.6,50.0,88,29.80,0.2,NW,10.4,23.0,N/A,Thunderstorm,Overcast,320,2012-12-09 13:55:00
8:15 AM,53.6,50.0,88,29.78,1.2,NE,4.6,-,N/A,,Overcast,40,2012-12-09 14:15:00
8:35 AM,55.4,50.0,82,29.78,1.8,SE,3.5,-,N/A,,Overcast,140,2012-12-09 14:35:00
8:55 AM,55.4,50.0,82,29.78,2.0,ESE,5.8,-,N/A,,Overcast,120,2012-12-09 14:55:00
9:35 AM,55.4,51.8,88,29.78,3.0,ESE,5.8,-,N/A,,Overcast,120,2012-12-09 15:35:00
9:55 AM,57.2,51.8,82,29.78,5.0,ESE,4.6,-,N/A,,Mostly Cloudy,120,2012-12-09 15:55:00
10:35 AM,57.2,51.8,82,29.79,8.0,ENE,3.5,-,N/A,,Mostly Cloudy,60,2012-12-09 16:35:00
10:55 AM,59.0,51.8,77,29.77,3.0,East,3.5,-,0.02,Thunderstorm,Overcast,90,2012-12-09 16:55:00
11:35 AM,59.0,53.6,82,29.75,4.0,Calm,Calm,-,0.10,,Mostly Cloudy,0,2012-12-09 17:35:00
11:55 AM,59.0,53.6,82,29.75,4.0,North,6.9,-,0.10,,Mostly Cloudy,360,2012-12-09 17:55:00
12:35 PM,60.8,55.4,82,29.73,7.0,NNW,8.1,-,N/A,,Overcast,340,2012-12-09 18:35:00
12:55 PM,60.8,53.6,77,29.74,8.0,NW,11.5,-,N/A,,Overcast,320,2012-12-09 18:55:00
1:15 PM,57.2,53.6,88,29.74,10.0,WNW,11.5,16.1,N/A,,Overcast,300,2012-12-09 19:15:00
1:55 PM,55.4,51.8,88,29.75,9.0,North,8.1,18.4,N/A,,Overcast,350,2012-12-09 19:55:00
2:15 PM,57.2,50.0,77,29.75,10.0,NNW,12.7,16.1,N/A,,Overcast,340,2012-12-09 20:15:00
2:35 PM,57.2,48.2,72,29.75,10.0,NNW,12.7,18.4,N/A,,Overcast,340,2012-12-09 20:35:00
2:55 PM,55.4,48.2,77,29.77,5.0,NW,9.2,-,N/A,,Overcast,310,2012-12-09 20:55:00
3:36 PM,51.8,44.6,76,29.81,5.0,NW,11.5,19.6,N/A,,Overcast,320,2012-12-09 21:36:00
3:55 PM,51.8,44.6,76,29.82,6.0,NW,10.4,-,N/A,,Overcast,310,2012-12-09 21:55:00
4:35 PM,51.8,42.8,71,29.82,10.0,NW,12.7,18.4,N/A,,Overcast,320,2012-12-09 22:35:00
6:16 PM,48.2,39.2,71,29.87,10.0,NW,9.2,-,N/A,,Overcast,320,2012-12-10 00:16:00
6:35 PM,48.2,39.2,71,29.87,10.0,NW,10.4,16.1,N/A,,Overcast,320,2012-12-10 00:35:00
6:55 PM,48.2,39.2,71,29.88,10.0,NW,11.5,17.3,N/A,,Overcast,310,2012-12-10 00:55:00
7:15 PM,48.2,39.2,71,29.89,10.0,NW,9.2,-,N/A,,Overcast,310,2012-12-10 01:15:00
7:35 PM,48.2,39.2,71,29.89,10.0,NW,11.5,-,N/A,,Overcast,320,2012-12-10 01:35:00
8:35 PM,48.2,37.4,66,29.90,10.0,NW,8.1,-,N/A,,Overcast,310,2012-12-10 02:35:00
9:15 PM,46.4,35.6,66,29.91,10.0,NW,13.8,-,N/A,,Overcast,320,2012-12-10 03:15:00
9:56 PM,46.4,35.6,66,29.91,10.0,NNW,10.4,-,N/A,,Overcast,330,2012-12-10 03:56:00
10:15 PM,44.6,33.8,66,29.92,10.0,NW,12.7,18.4,N/A,,Overcast,320,2012-12-10 04:15:00
10:35 PM,44.6,33.8,66,29.93,10.0,NNW,11.5,-,N/A,,Overcast,330,2012-12-10 04:35:00
11:15 PM,42.8,30.2,61,29.93,10.0,NW,9.2,16.1,N/A,,Mostly Cloudy,310,2012-12-10 05:15:00
11:35 PM,42.8,30.2,61,29.93,10.0,NW,12.7,-,N/A,,Overcast,320,2012-12-10 05:35:00